Content
SEND FEEDBACK

Daily
Averages
Monthly
Summary
United States of America

POTTS JUNCTION, GUAM


Home > North America > United States > Guam
Elevation: 360 feet     Latitude: 13 33N     Longitude: 144 50E

WEATHER
 
SELECT A DAY
Number of Records: 208,892;   Date Range: 1/1/95 - 7/22/14
 
SHARE

PRINT THIS DATA

[ ← Previous Day ]
WEATHER ALMANAC - APRIL 6, 2013
[ Next Day → ]
[ °C ]   °F
Weather ElementAverageHighLow
Temperature83.3 °F88 °F (11:54 am)80.1 °F (1:54 am)
Dewpoint70.4 °F71.1 °F (4:54 am)69.1 °F (1:54 pm)
Humidity65.6 %74 % (4:54 am)53 % (1:54 pm)
Barometer29.82 in29.87 in (8:54 am)29.76 in (2:54 pm)
Wind Speed9.5 mph16.1 mph (12:54 pm)
Wind Gust25.3 mph (1:54 pm)
Weather ElementAverage
Visibility10 mi
Wind DirectionE (88.3 °)

Weather ElementTotal
Precipitation---
Cooling Degree Days19.1 (Base 65)
Growing Degree Days34.1 (Base 50)
Averaged from 23 records on April 6, 2013
WEATHER CONDITIONS BREAKOUT
WIND DIRECTION BREAKOUT
WEATHER BY HOUR - APRIL 6, 2013
[ °C ]   °F
Local TimeTemperatureDewpointHumidityBarometerVisibilityWind DirectionWind SpeedGust SpeedPrecipitationEventsConditions
1:54 AM80.1 °F70.0 °F71 %29.85 in10.0 miEast (90°)8.1 mphClear
2:54 AM80.1 °F70.0 °F71 %29.83 in10.0 miENE (70°)6.9 mphClear
3:54 AM80.1 °F70.0 °F71 %29.82 in10.0 miENE (70°)8.1 mphClear
4:54 AM80.1 °F71.1 °F74 %29.82 in10.0 miEast (80°)5.8 mphClear
5:54 AM80.1 °F71.1 °F74 %29.83 in10.0 miENE (70°)8.1 mphClear
6:54 AM80.1 °F70.0 °F71 %29.84 in10.0 miEast (80°)5.8 mphClear
7:54 AM82.9 °F71.1 °F67 %29.86 in10.0 miENE (70°)10.4 mphPartly Cloudy
8:54 AM84.9 °F70.0 °F61 %29.87 in10.0 miEast (90°)13.8 mphPartly Cloudy
9:54 AM87.1 °F70.0 °F57 %29.86 in10.0 miENE (70°)15.0 mph21.9 mphScattered Clouds
10:54 AM87.1 °F70.0 °F57 %29.85 in10.0 miEast (80°)13.8 mphPartly Cloudy
11:54 AM88.0 °F71.1 °F57 %29.83 in10.0 miEast (90°)13.8 mph21.9 mphScattered Clouds
12:54 PM88.0 °F70.0 °F55 %29.81 in10.0 miENE (70°)16.1 mphScattered Clouds
1:54 PM88.0 °F69.1 °F53 %29.78 in10.0 miEast (90°)15.0 mph25.3 mphPartly Cloudy
2:54 PM87.1 °F70.0 °F57 %29.76 in10.0 miEast (100°)15.0 mphPartly Cloudy
3:54 PM86.0 °F70.0 °F59 %29.76 in10.0 miEast (90°)10.4 mph19.6 mphScattered Clouds
4:54 PM86.0 °F71.1 °F61 %29.76 in10.0 miESE (110°)10.4 mphPartly Cloudy
5:54 PM84.0 °F70.0 °F63 %29.79 in10.0 miEast (90°)11.5 mphPartly Cloudy
6:54 PM82.0 °F70.0 °F67 %29.80 in10.0 miEast (90°)5.8 mphPartly Cloudy
7:54 PM81.0 °F71.1 °F72 %29.82 in10.0 miEast (90°)5.8 mphPartly Cloudy
8:54 PM81.0 °F71.1 °F72 %29.84 in10.0 miESE (110°)5.8 mphPartly Cloudy
9:54 PM81.0 °F71.1 °F72 %29.85 in10.0 miEast (100°)4.6 mphPartly Cloudy
10:54 PM81.0 °F71.1 °F72 %29.86 in10.0 miESE (110°)5.8 mphPartly Cloudy
11:54 PM80.1 °F71.1 °F74 %29.85 in10.0 miESE (120°)3.5 mphPartly Cloudy
Hourly data recorded from PGUM, located miles away from Potts Junction, Guam







STORIES FROM OUR PARTNERS